Regional Weather Roundup
Issued by NWS

Home | Current Version | Previous Version | Text Only | Print | Product List | Glossary Off
Versions: 1 2 3 4 5 6 7 8 9 10 11 12 13 14 15 16 17 18 19 20 21 22 23 24 25 26 27 28 29 30 31 32 33 34 35 36 37 38 39 40 41 42 43 44 45 46 47 48 49 50

261
ASUS43 KLSX 051310
RWRMO

WEATHER SUMMARY FOR MISSOURI
NATIONAL WEATHER SERVICE SPRINGFIELD MO
700 AM CST MON DEC 05 2016

NOTE: "FAIR" INDICATES FEW OR NO CLOUDS BELOW 12,000 FEET WITH NO
       SIGNIFICANT WEATHER AND/OR OBSTRUCTIONS TO VISIBILITY.
       CURRENT SKY AND/OR WEATHER CONDITIONS ARE NOT AVAILABLE FOR
       CHILLICOTHE AND FARMINGTON.

MOZ001>031-035>038-043-044-053-054-051400-
...NORTHERN AND WESTERN MISSOURI...

CITY           SKY/WX    TMP DP  RH WIND       PRES   REMARKS
KANSAS CTY INT CLEAR     30  27  88 S8        29.90F WCI  22
KANSAS C DTWN  CLEAR     35  33  92 S3        29.91F
LEE`S SUMMIT   CLEAR     35  33  92 S7        29.92F WCI  29
ST JOSEPH      CLEAR     30  29  96 S7        29.89F WCI  23
CHILLICOTHE      N/A     29  28  96 SE3       29.96R
KIRKSVILLE     FOG       30  28  92 S6        29.97R VSB 1/4 WCI  24

$$
MOZ066>068-077>081-088>096-101>105-051400-
...SOUTHWEST MISSOURI...

CITY           SKY/WX    TMP DP  RH WIND       PRES   REMARKS
SPRINGFIELD    FOG       31  30  96 SE6       29.95F VSB 1/4 WCI  25
JOPLIN         CLOUDY    33  33 100 CALM      29.95F FOG
BRANSON        FOG       30  30 100 CALM      29.98S VSB 1/8

$$
MOZ032>034-039>042-045>050-055>058-069>072-051400-
...CENTRAL MISSOURI...

CITY           SKY/WX    TMP DP  RH WIND       PRES   REMARKS
COLUMBIA       FOG       29  28  96 SE7       29.99S VSB 1/4 WCI  22
JEFFERSON CITY FOG       26  25  96 SE6       30.01S VSB 3/4 WCI  19
ROLLA          CLOUDY    33  33 100 S9        30.00R WCI  25
SEDALIA        CLEAR     30  28  92 S7        29.98S FOG     WCI  23
WHITEMAN AFB   CLEAR     29  29 100 S7        29.95F WCI  22
WARRENSBURG    CLEAR     32  30  93 S5        29.95F WCI  27
OSAGE BEACH    CLOUDY    30  28  93 SE5       30.00S FOG     WCI  25

$$
MOZ051-052-059>065-051400-
...EAST CENTRAL MISSOURI...

CITY           SKY/WX    TMP DP  RH WIND       PRES   REMARKS
ST LOUIS INTL  CLOUDY    37  32  82 SE7       30.04S
SPIRIT OF STL  CLOUDY    26  26 100 CALM      30.04S
ST CHARLES     CLOUDY    35  34  96 SE5       30.05R

$$
MOZ072>076-082>087-097>100-106>115-051400-
...SOUTH CENTRAL AND SOUTHEAST MISSOURI...

CITY           SKY/WX    TMP DP  RH WIND       PRES   REMARKS
CAPE GIRARDEAU PTCLDY    31  29  92 CALM      30.06S
FARMINGTON     CLOUDY    29  29 100 CALM      30.04S
POPLAR BLUFF   CLOUDY    34  33  96 E3        30.05R
WEST PLAINS    CLOUDY    31  30  96 CALM      30.00S

$$




USA.gov is the U.S. government's official web portal to all federal, state and local government web resources and services.